Tiempo cada hora Bolshie Klyari

Hoy, 31 Julio, Sábado

Tiempo Temperatura Precipitaciones Viento Presión Humedad
00:00 +21°C° 0.1 mm 3 mps 744 mmHg 80%
01:00 +20°C° 0.1 mm 2 mps 744 mmHg 84%
02:00 +20°C° 0.1 mm 2 mps 744 mmHg 87%
03:00 +20°C° 0.1 mm 2 mps 743 mmHg 90%
04:00 +20°C° 0 mm 3 mps 743 mmHg 89%
05:00 +20°C° 0 mm 3 mps 743 mmHg 88%
06:00 +21°C° 0 mm 4 mps 743 mmHg 87%
07:00 +22°C° 0 mm 4 mps 743 mmHg 81%
08:00 +23°C° 0 mm 5 mps 743 mmHg 76%
09:00 +25°C° 0 mm 5 mps 743 mmHg 70%
10:00 +26°C° 0.1 mm 6 mps 743 mmHg 66%
11:00 +26°C° 0.1 mm 6 mps 743 mmHg 63%
12:00 +27°C° 0.1 mm 7 mps 743 mmHg 59%
13:00 +27°C° 0 mm 7 mps 744 mmHg 57%
14:00 +28°C° 0 mm 7 mps 744 mmHg 56%
15:00 +28°C° 0 mm 7 mps 744 mmHg 54%
16:00 +28°C° 0 mm 6 mps 744 mmHg 56%
17:00 +27°C° 0 mm 5 mps 744 mmHg 59%
18:00 +27°C° 0 mm 5 mps 744 mmHg 62%
19:00 +26°C° 0 mm 4 mps 745 mmHg 62%
20:00 +25°C° 0 mm 4 mps 745 mmHg 62%
21:00 +23°C° 0 mm 4 mps 746 mmHg 63%
22:00 +21°C° 0 mm 4 mps 746 mmHg 66%
23:00 +20°C° 0 mm 4 mps 746 mmHg 69%

Mañana, 1 Agosto, Domingo

Tiempo Temperatura Precipitaciones Viento Presión Humedad
00:00 +19°C° 0 mm 4 mps 746 mmHg 72%
01:00 +19°C° 0 mm 4 mps 747 mmHg 71%
02:00 +18°C° 0 mm 4 mps 747 mmHg 70%
03:00 +18°C° 0 mm 4 mps 747 mmHg 68%
04:00 +18°C° 0 mm 4 mps 748 mmHg 68%
05:00 +19°C° 0 mm 4 mps 748 mmHg 68%
06:00 +19°C° 0 mm 4 mps 749 mmHg 67%
07:00 +21°C° 0 mm 4 mps 749 mmHg 61%
08:00 +23°C° 0 mm 4 mps 749 mmHg 54%
09:00 +26°C° 0 mm 4 mps 749 mmHg 48%
10:00 +27°C° 0 mm 4 mps 749 mmHg 45%
11:00 +28°C° 0 mm 5 mps 749 mmHg 42%
12:00 +29°C° 0 mm 5 mps 749 mmHg 40%
13:00 +29°C° 0 mm 5 mps 749 mmHg 39%
14:00 +29°C° 0 mm 5 mps 749 mmHg 38%
15:00 +30°C° 0 mm 5 mps 749 mmHg 37%
16:00 +29°C° 0 mm 4 mps 750 mmHg 42%
17:00 +28°C° 0 mm 3 mps 750 mmHg 46%
18:00 +27°C° 0 mm 2 mps 750 mmHg 51%
19:00 +26°C° 0 mm 2 mps 750 mmHg 54%
20:00 +24°C° 0 mm 2 mps 750 mmHg 56%
21:00 +23°C° 0 mm 1 mps 750 mmHg 59%
22:00 +21°C° 0 mm 2 mps 750 mmHg 60%
23:00 +21°C° 0 mm 2 mps 750 mmHg 61%

Pasado mañana, 2 Agosto, Lunes

Tiempo Temperatura Precipitaciones Viento Presión Humedad
00:00 +20°C° 0 mm 2 mps 750 mmHg 62%
01:00 +20°C° 0 mm 2 mps 750 mmHg 64%
02:00 +20°C° 0 mm 2 mps 750 mmHg 65%
03:00 +19°C° 0 mm 2 mps 751 mmHg 67%
04:00 +20°C° 0 mm 2 mps 751 mmHg 67%
05:00 +21°C° 0 mm 2 mps 751 mmHg 66%
06:00 +21°C° 0 mm 2 mps 751 mmHg 66%
07:00 +25°C° 0 mm 3 mps 751 mmHg 59%
08:00 +27°C° 0 mm 4 mps 751 mmHg 53%
09:00 +29°C° 0 mm 4 mps 751 mmHg 46%
10:00 +30°C° 0 mm 4 mps 751 mmHg 42%
11:00 +32°C° 0 mm 5 mps 751 mmHg 39%
12:00 +34°C° 0 mm 5 mps 750 mmHg 35%
13:00 +34°C° 0 mm 5 mps 750 mmHg 35%
14:00 +34°C° 0 mm 4 mps 750 mmHg 34%
15:00 +35°C° 0 mm 4 mps 750 mmHg 34%
16:00 +34°C° 0 mm 4 mps 750 mmHg 39%
17:00 +33°C° 0 mm 3 mps 749 mmHg 43%
18:00 +31°C° 0 mm 3 mps 749 mmHg 48%
19:00 +29°C° 0 mm 3 mps 749 mmHg 47%
20:00 +28°C° 0 mm 3 mps 749 mmHg 47%
21:00 +26°C° 0 mm 3 mps 749 mmHg 46%
22:00 +25°C° 0 mm 2 mps 749 mmHg 51%
23:00 +24°C° 0 mm 2 mps 749 mmHg 56%

3 Agosto, Martes

Tiempo Temperatura Precipitaciones Viento Presión Humedad
00:00 +23°C° 0 mm 1 mps 748 mmHg 61%
01:00 +23°C° 0 mm 2 mps 748 mmHg 62%
02:00 +21°C° 0 mm 2 mps 748 mmHg 64%
03:00 +21°C° 0 mm 3 mps 748 mmHg 65%
04:00 +22°C° 0 mm 3 mps 748 mmHg 64%
05:00 +22°C° 0 mm 3 mps 748 mmHg 63%
06:00 +24°C° 0 mm 3 mps 748 mmHg 62%
07:00 +26°C° 0 mm 3 mps 748 mmHg 57%
08:00 +27°C° 0 mm 4 mps 747 mmHg 53%
09:00 +29°C° 0 mm 5 mps 747 mmHg 49%
10:00 +32°C° 0 mm 5 mps 747 mmHg 43%
11:00 +33°C° 0 mm 5 mps 747 mmHg 38%
12:00 +35°C° 0 mm 5 mps 747 mmHg 33%
13:00 +36°C° 0 mm 6 mps 746 mmHg 31%
14:00 +38°C° 0 mm 6 mps 746 mmHg 29%
15:00 +38°C° 0 mm 6 mps 746 mmHg 27%
16:00 +35°C° 0 mm 5 mps 746 mmHg 36%
17:00 +33°C° 0 mm 5 mps 746 mmHg 45%
18:00 +29°C° 0 mm 4 mps 746 mmHg 55%
19:00 +28°C° 0 mm 3 mps 746 mmHg 57%
20:00 +27°C° 0 mm 2 mps 747 mmHg 60%
21:00 +26°C° 0 mm 1 mps 747 mmHg 62%
22:00 +25°C° 0.4 mm 2 mps 747 mmHg 66%
23:00 +24°C° 0.4 mm 2 mps 747 mmHg 70%

4 Agosto, Miércoles

Tiempo Temperatura Precipitaciones Viento Presión Humedad
00:00 +22°C° 0.4 mm 3 mps 748 mmHg 74%
01:00 +23°C° 0.1 mm 2 mps 747 mmHg 74%
02:00 +23°C° 0.1 mm 2 mps 747 mmHg 73%
03:00 +23°C° 0.1 mm 1 mps 746 mmHg 73%
04:00 +23°C° 0.1 mm 2 mps 747 mmHg 74%
05:00 +23°C° 0.1 mm 2 mps 747 mmHg 75%
06:00 +23°C° 0.1 mm 2 mps 747 mmHg 76%
07:00 +22°C° 0 mm 3 mps 747 mmHg 75%
08:00 +22°C° 0 mm 4 mps 748 mmHg 74%
09:00 +23°C° 0 mm 5 mps 748 mmHg 73%
10:00 +25°C° 0 mm 5 mps 748 mmHg 67%
11:00 +26°C° 0 mm 5 mps 748 mmHg 61%
12:00 +26°C° 0 mm 5 mps 749 mmHg 55%
13:00 +26°C° 0 mm 5 mps 749 mmHg 54%
14:00 +26°C° 0 mm 6 mps 749 mmHg 52%
15:00 +26°C° 0 mm 6 mps 749 mmHg 51%
16:00 +26°C° 0 mm 5 mps 750 mmHg 51%
17:00 +26°C° 0 mm 4 mps 750 mmHg 52%
18:00 +26°C° 0 mm 3 mps 750 mmHg 52%
19:00 +24°C° 0 mm 3 mps 750 mmHg 58%
20:00 +21°C° 0 mm 3 mps 750 mmHg 63%
21:00 +19°C° 0 mm 3 mps 750 mmHg 68%
22:00 +19°C° 0 mm 3 mps 751 mmHg 71%
23:00 +18°C° 0 mm 2 mps 751 mmHg 74%

5 Agosto, Jueves

Tiempo Temperatura Precipitaciones Viento Presión Humedad
00:00 +18°C° 0 mm 2 mps 751 mmHg 76%
01:00 +17°C° 0 mm 2 mps 751 mmHg 78%
02:00 +17°C° 0 mm 2 mps 751 mmHg 80%
03:00 +16°C° 0 mm 2 mps 752 mmHg 82%
04:00 +17°C° 0 mm 2 mps 752 mmHg 80%
05:00 +17°C° 0 mm 3 mps 752 mmHg 78%
06:00 +18°C° 0 mm 3 mps 752 mmHg 76%
07:00 +19°C° 0 mm 3 mps 752 mmHg 70%
08:00 +21°C° 0 mm 4 mps 752 mmHg 64%
09:00 +23°C° 0 mm 4 mps 752 mmHg 58%
10:00 +23°C° 0 mm 4 mps 752 mmHg 53%
11:00 +25°C° 0 mm 4 mps 752 mmHg 49%
12:00 +26°C° 0 mm 4 mps 752 mmHg 44%
13:00 +27°C° 0 mm 4 mps 752 mmHg 42%
14:00 +27°C° 0 mm 4 mps 752 mmHg 40%
15:00 +28°C° 0 mm 3 mps 752 mmHg 38%
16:00 +26°C° 0 mm 4 mps 752 mmHg 42%
17:00 +25°C° 0 mm 5 mps 752 mmHg 45%
18:00 +23°C° 0 mm 5 mps 752 mmHg 49%
19:00 +22°C° 0 mm 5 mps 753 mmHg 51%
20:00 +22°C° 0 mm 4 mps 753 mmHg 53%
21:00 +21°C° 0 mm 3 mps 753 mmHg 54%
22:00 +20°C° 0 mm 3 mps 753 mmHg 58%
23:00 +19°C° 0 mm 3 mps 753 mmHg 61%
Mostrar más